Location: Martley
(52.2333°N, 2.3667°W)
Time: 04:06:30
(UTC+00:00)

Cosmos 2279 Rocket - Pass Details

Date: 11 December 2019
Orbit: 964 x 979 km, 82.9° (Epoch: 27 January)

Event Time Altitude Azimuth Distance (km) Brightness Sun altitude
Rises 06:44:06 0° 209° (SSW) 3,647 6.9 -11.9°
Reaches altitude 10° 06:46:43 10° 215° (SW) 2,706 6.2 -11.6°
Maximum altitude 06:52:39 47° 288° (WNW) 1,275 4.2 -10.7°
Drops below altitude 10° 06:58:40 10° 2° (N) 2,732 6.1 -9.9°
Sets 07:01:19 0° 8° (N) 3,686 6.8 -9.5°
